[[{"header":{"parameterUnit":"m.s-1","parameterCategory":2,"la1":30.2991,"la2":30.254,"lo1":-89.0895,"lo2":-89.0444,"dy":0.0017,"dx":0.0017,"nx":28,"ny":28,"refTime":"2024-10-21T03:00:00:Z","depth":"0","parameterNumber":2,"parameterNumberName":"U-component_of_CURRENTS"},"data":[0,0,0,0,0,0,0,0,0,0,0,0,0,0,0,0,0,0,0,0,0,0,0,0,0,0,0,0,0,0,0,0,0,0,0,0,0,0,0,0,0,0,0,0,0,0,0,0,0,0,0,0,0,0,0,0,0,0,0.3398,0.3397,0,0.3328,0.3327,0.3327,0.3301,0.3301,0.3301,0.3301,0.3203,0.32,0.3198,0,0,0,0,0,0,0,0,0,0,0,0,0,0.3531,0.3529,0.3398,0.3397,0.3396,0.3328,0.3327,0.3327,0.3301,0.3301,0.3301,0.3301,0.3204,0.3201,0.3198,0,0,0,0,0,0,0,0,0,0,0,0,0,0.347,0.3528,0.3398,0.3374,0.3371,0.3328,0.3327,0.3326,0.3301,0.3301,0.3301,0.3301,0.3205,0.3201,0.3197,0.317,0,0,0.3185,0.3183,0,0,0,0,0,0,0,0,0.3473,0.3465,0.3378,0.3375,0.3372,0.3322,0.3338,0.3272,0.3301,0.3329,0.3301,0.3301,0.3239,0.3232,0.3222,0.3166,0.3161,0.3184,0.3182,0.318,0.3179,0,0,0,0,0,0,0,0.3478,0.3468,0.3372,0.3377,0.3373,0.3373,0.3365,0.3326,0.3285,0.3327,0.3324,0.3314,0.3237,0.3226,0.3219,0.316,0.3185,0.3181,0.3179,0.3177,0.3134,0.3136,0,0,0,0,0,0,0.3481,0.3472,0.3374,0.337,0.3422,0.3371,0.3361,0.3339,0.3286,0.3278,0.3314,0.3313,0.3232,0.3224,0.3215,0.3229,0.318,0.3177,0.3174,0.3133,0.3135,0.3136,0,0,0,0,0,0,0.3484,0.3473,0.3377,0.3419,0.3407,0.3368,0.3344,0.3338,0.3332,0.3276,0.3268,0.3315,0.3232,0.3221,0.3197,0.3223,0.3175,0.3171,0.3132,0.3134,0.3135,0.3224,0,0,0,0,0,0,0.3488,0.3474,0.347,0.3419,0.3404,0.3367,0.3343,0.3336,0.3324,0.3323,0.3274,0.3265,0.3231,0.3204,0.3194,0.3217,0.3168,0.313,0.3132,0.3135,0.322,0.3229,0.3237,0,0,0,0,0,0.3493,0.348,0.347,0.3458,0.3396,0.3368,0.3361,0.3336,0.3324,0.333,0.3299,0.3267,0.3212,0.3201,0.3189,0.3211,0.3129,0.3132,0.3135,0.3216,0.3227,0.3237,0,0,0,0,0,0,0.3538,0.3475,0.3462,0.3432,0.3411,0.3363,0.336,0.3342,0.3322,0.3319,0.3271,0.326,0.3252,0.3219,0.3208,0.3209,0.317,0.317,0.3236,0.3246,0.3254,0.328,0.3165,0,0,0,0,0,0.3545,0.3524,0.3471,0.3457,0.3441,0.3404,0.3392,0.3375,0.3343,0.3335,0.3301,0.3271,0.3253,0.3239,0.3213,0.3202,0.3226,0.3214,0.3222,0.323,0.3244,0.3309,0.3326,0.3145,0.3145,0.3145,0,0,0.3563,0.3525,0.3516,0.3468,0.3444,0.3427,0.3398,0.3381,0.3381,0.3325,0.3318,0.3294,0.3257,0.3255,0.325,0.323,0.3298,0.3233,0.324,0.325,0.3314,0.3332,0.3348,0.3147,0.3147,0.3147,0,0,0.3583,0.355,0.3536,0.3514,0.3477,0.3455,0.3454,0.3411,0.3408,0.3396,0.3366,0.3364,0.3319,0.3312,0.3299,0.3338,0.3341,0.3328,0.339,0.3454,0.347,0.3484,0.3562,0.3582,0.3333,0.3334,0.3334,0,0.361,0.3573,0.3536,0.3513,0.3499,0.347,0.346,0.3453,0.3417,0.3426,0.3408,0.3387,0.3352,0.3368,0.3387,0.3359,0.3403,0.3353,0.3468,0.3482,0.3495,0.3571,0.3592,0.3338,0.3338,0.3337,0.3337,0,0.3613,0.3586,0.3577,0.3539,0.3527,0.3515,0.3491,0.3499,0.3493,0.3487,0.3505,0.3474,0.3467,0.3461,0.3433,0.3505,0.3511,0.3474,0.3447,0.352,0.3594,0.3615,0.3345,0.3343,0.3342,0.3341,0,0,0.3643,0.3591,0.3583,0.357,0.3536,0.3523,0.3542,0.3547,0.3575,0.3565,0.3611,0.3587,0.3585,0.3573,0.3547,0.3599,0.3732,0.3586,0.3587,0.3673,0.3904,0.3809,0.3823,0.3724,0.3728,0.373,0.3928,0,0.3654,0.3626,0.3596,0.3584,0.3567,0.3556,0.3576,0.3588,0.3609,0.3652,0.3655,0.3679,0.3623,0.3638,0.3682,0.3716,0.3788,0.3684,0.3811,0.3816,0.373,0.3843,0.3634,0.3783,0.3949,0.3952,0.3954,0,0.3651,0.3632,0.3621,0.3602,0.3594,0.3594,0.3631,0.3645,0.3706,0.3727,0.3765,0.3777,0.3843,0.3791,0.3908,0.3851,0.3894,0.3922,0.393,0.3823,0.3758,0.3731,0.3814,0.3697,0.3986,0.3984,0.3981,0,0.3677,0.3641,0.3639,0.3628,0.3612,0.3623,0.3627,0.3672,0.3697,0.379,0.3838,0.3902,0.395,0.4016,0.4053,0.401,0.42,0.414,0.4102,0.4097,0.3932,0.3905,0.3918,0.4252,0.4252,0.4251,0.4251,0,0.368,0.3661,0.365,0.3641,0.365,0.3639,0.3672,0.3698,0.3761,0.3808,0.3873,0.3942,0.4015,0.4111,0.4136,0.4188,0.4267,0.415,0.4149,0.3956,0.393,0.3826,0.3781,0.4259,0.4257,0.4256,0.4255,0,0.366,0.3666,0.365,0.3649,0.3654,0.3653,0.3665,0.3695,0.3764,0.3843,0.3882,0.4013,0.4136,0.4201,0.4331,0.4284,0.4219,0.4344,0.4118,0.4084,0.3884,0.3852,0.3777,0.3667,0.4345,0.4344,0.4343,0,0.3628,0.363,0.3643,0.3647,0.3633,0.3638,0.3648,0.3691,0.3725,0.3874,0.3919,0.4082,0.4164,0.4318,0.4298,0.4351,0.4209,0.4163,0.4016,0.3877,0.3843,0.371,0.3612,0.386,0.3855,0.3851,0.3848,0,0.3561,0.3585,0.3578,0.3605,0.3613,0.3614,0.3634,0.3663,0.3736,0.3799,0.3917,0.4011,0.4158,0.4114,0.4167,0.4155,0.3928,0.4082,0.3998,0.3523,0.3321,0.321,0.3749,0.3813,0.3817,0.3819,0.3821,0.3823,0.3507,0.3496,0.3527,0.3528,0.3551,0.357,0.3538,0.3588,0.3624,0.3669,0.3829,0.3876,0.39,0.3942,0.3915,0.3693,0.3731,0.3527,0.3529,0.3431,0.3211,0.3679,0.3685,0.3687,0.369,0.3692,0.3694,0,0.3429,0.3436,0.3445,0.345,0.3429,0.348,0.3501,0.3452,0.3445,0.3537,0.3581,0.3556,0.35,0.3487,0.331,0.3148,0.3013,0.3045,0.281,0.2764,0.3238,0.3098,0.29,0.29,0.29,0.29,0.2901,0.2901,0.34,0.337,0.3369,0.3314,0.3315,0.3238,0.3225,0.3194,0.322,0.3144,0.3094,0.3134,0.3153,0.3053,0.2814,0.273,0.2529,0.2401,0.2454,0.2779,0.2823,0.2865,0.2722,0.2449,0.2448,0.1816,0.1811,0.1808]},{"header":{"parameterUnit":"m.s-1","parameterCategory":2,"la1":30.2991,"la2":30.254,"lo1":-89.0895,"lo2":-89.0444,"dy":0.0017,"dx":0.0017,"nx":28,"ny":28,"refTime":"2024-10-21T03:00:00:Z","depth":"0","parameterNumber":3,"parameterNumberName":"V-component_of_CURRENTS"},"data":[0,0,0,0,0,0,0,0,0,0,0,0,0,0,0,0,0,0,0,0,0,0,0,0,0,0,0,0,0,0,0,0,0,0,0,0,0,0,0,0,0,0,0,0,0,0,0,0,0,0,0,0,0,0,0,0,0,0,-0.0239,-0.0239,0,-0.0284,-0.0285,-0.0285,-0.0336,-0.0336,-0.0336,-0.0337,-0.0384,-0.0385,-0.0386,0,0,0,0,0,0,0,0,0,0,0,0,0,-0.0212,-0.0213,-0.0239,-0.0239,-0.024,-0.0284,-0.0285,-0.0286,-0.0336,-0.0336,-0.0337,-0.0337,-0.0384,-0.0385,-0.0386,0,0,0,0,0,0,0,0,0,0,0,0,0,-0.024,-0.0213,-0.0239,-0.0267,-0.027,-0.0284,-0.0285,-0.0286,-0.0335,-0.0336,-0.0337,-0.0337,-0.0384,-0.0385,-0.0386,-0.0383,0,0,-0.039,-0.0391,0,0,0,0,0,0,0,0,-0.0239,-0.0242,-0.0263,-0.0265,-0.0268,-0.0302,-0.0292,-0.0317,-0.0335,-0.0314,-0.0337,-0.0338,-0.0354,-0.0358,-0.037,-0.0385,-0.0387,-0.0391,-0.0391,-0.0392,-0.0392,0,0,0,0,0,0,0,-0.0237,-0.024,-0.0261,-0.0263,-0.0266,-0.0282,-0.0287,-0.0298,-0.0333,-0.0316,-0.0319,-0.0318,-0.0356,-0.0369,-0.0372,-0.0388,-0.0391,-0.0392,-0.0393,-0.0393,-0.0406,-0.0405,0,0,0,0,0,0,-0.0222,-0.0238,-0.0259,-0.0262,-0.025,-0.0282,-0.0288,-0.0293,-0.0333,-0.0339,-0.0317,-0.032,-0.0366,-0.037,-0.0373,-0.0358,-0.0392,-0.0393,-0.0394,-0.0406,-0.0406,-0.0405,0,0,0,0,0,0,-0.0222,-0.0224,-0.0257,-0.0248,-0.0253,-0.0281,-0.0287,-0.0294,-0.0305,-0.0333,-0.034,-0.0321,-0.0367,-0.0372,-0.0379,-0.0361,-0.0394,-0.0395,-0.0407,-0.0406,-0.0406,-0.0336,0,0,0,0,0,0,-0.0221,-0.0224,-0.0226,-0.0247,-0.0252,-0.0258,-0.0287,-0.0294,-0.0301,-0.0306,-0.0339,-0.0344,-0.0368,-0.0377,-0.038,-0.0363,-0.0396,-0.0407,-0.0407,-0.0406,-0.0339,-0.0333,-0.0328,0,0,0,0,0,-0.022,-0.0218,-0.0226,-0.0229,-0.0254,-0.0257,-0.0261,-0.0286,-0.0301,-0.03,-0.0324,-0.0343,-0.0374,-0.0377,-0.0381,-0.0365,-0.0408,-0.0407,-0.0406,-0.0341,-0.0334,-0.0328,0,0,0,0,0,0,-0.0213,-0.0223,-0.0233,-0.0236,-0.0241,-0.0264,-0.0262,-0.0279,-0.0299,-0.0303,-0.0335,-0.0342,-0.0343,-0.0364,-0.0366,-0.0367,-0.0394,-0.0394,-0.0344,-0.0337,-0.0332,-0.0313,-0.0397,0,0,0,0,0,-0.0209,-0.0212,-0.0219,-0.0224,-0.0218,-0.0238,-0.0244,-0.0259,-0.0276,-0.0286,-0.0308,-0.033,-0.0342,-0.0347,-0.0365,-0.036,-0.0355,-0.0354,-0.0349,-0.0344,-0.0332,-0.0317,-0.0308,-0.0402,-0.0402,-0.0402,0,0,-0.0214,-0.0214,-0.0221,-0.0222,-0.0226,-0.0208,-0.0244,-0.0244,-0.0236,-0.0285,-0.0284,-0.0311,-0.0338,-0.0337,-0.0339,-0.0351,-0.0309,-0.0343,-0.0338,-0.0329,-0.0314,-0.0305,-0.0297,-0.0401,-0.0401,-0.0401,0,0,-0.02,-0.0213,-0.0198,-0.019,-0.0183,-0.0191,-0.0185,-0.0199,-0.0212,-0.0214,-0.0247,-0.0259,-0.0282,-0.0294,-0.0304,-0.0277,-0.0283,-0.0287,-0.0239,-0.0224,-0.0216,-0.0208,-0.0163,-0.0152,-0.0282,-0.0281,-0.0281,0,-0.02,-0.0182,-0.0195,-0.0163,-0.0148,-0.0174,-0.0143,-0.0156,-0.0177,-0.0175,-0.0204,-0.0226,-0.0258,-0.0242,-0.0244,-0.0262,-0.0247,-0.026,-0.0215,-0.0208,-0.0201,-0.0157,-0.0146,-0.0278,-0.0278,-0.0279,-0.0279,0,-0.0164,-0.0145,-0.0129,-0.0097,-0.0085,-0.0066,-0.0068,-0.0069,-0.0088,-0.0101,-0.01,-0.0143,-0.0155,-0.0169,-0.0203,-0.0173,-0.0172,-0.021,-0.0226,-0.0187,-0.0143,-0.0132,-0.0273,-0.0274,-0.0275,-0.0276,0,0,-0.017,-0.0115,-0.0107,-0.0073,-0.0046,-0.003,-0.0007,0.0009,0.0032,-0.0002,0.0029,-0.0017,-0.0047,-0.006,-0.0099,-0.0094,-0.0042,-0.0132,-0.0133,-0.0075,0.0021,0.0004,0.0013,-0.0072,-0.0071,-0.007,0.0044,0,-0.0133,-0.006,-0.0044,0.0022,0.0061,0.0063,0.0093,0.01,0.0092,0.0111,0.0072,0.0081,-0.0002,-0.0001,-0.0014,-0.0036,-0.0017,-0.0068,-0.0035,-0.0033,-0.0045,0.0023,0.0015,0.0114,0.0054,0.0056,0.0057,0,-0.0096,-0.0049,0.0025,0.0097,0.0117,0.015,0.0202,0.0225,0.024,0.0237,0.023,0.0198,0.0199,0.0122,0.0117,0.0088,0.0061,0.0043,0.0046,0.0012,-0.0032,0.0058,0.0134,-0.0011,0.0073,0.0071,0.007,0,-0.0083,-0.0,0.0062,0.0087,0.016,0.0195,0.0231,0.026,0.03,0.0326,0.0365,0.0334,0.0357,0.03,0.0236,0.0184,0.025,0.0173,0.0145,0.0145,0.0136,0.0131,0.0082,0.0187,0.0186,0.0186,0.0186,0,-0.0045,0.0009,0.0075,0.0114,0.0197,0.0232,0.0314,0.0341,0.0401,0.0483,0.0432,0.05,0.0401,0.041,0.0314,0.0282,0.0314,0.0182,0.0176,0.0161,0.0157,0.0025,-0.007,0.019,0.0189,0.0189,0.0188,0,-0.0021,0.0013,0.0095,0.0179,0.0208,0.0271,0.0382,0.0446,0.0493,0.0606,0.063,0.0657,0.0682,0.0594,0.0549,0.0417,0.0288,0.0345,0.0349,0.0339,0.0123,0.0033,-0.0003,-0.007,0.0324,0.0325,0.0325,0,0.0002,0.0045,0.0144,0.0201,0.0248,0.0341,0.0415,0.0482,0.0569,0.0713,0.0789,0.0852,0.0923,0.0853,0.0662,0.0542,0.037,0.0408,0.028,0.0137,0.0032,-0.0039,-0.0098,0.0316,0.0316,0.0316,0.0316,0,0.0066,0.0096,0.0172,0.0274,0.0357,0.046,0.0576,0.0652,0.0765,0.0886,0.106,0.1136,0.1087,0.0977,0.0784,0.0649,0.0281,0.0404,0.0255,0.0028,-0.0048,-0.0123,0.0232,0.0317,0.0317,0.0317,0.0317,0.0317,0.0118,0.0183,0.0271,0.0373,0.0467,0.0586,0.0678,0.0818,0.0982,0.1197,0.1259,0.1446,0.1225,0.0972,0.0757,0.0329,0.032,0.0165,0.008,0.0032,-0.0081,0.0286,0.0346,0.0346,0.0346,0.0346,0.0346,0,0.0192,0.0268,0.0368,0.049,0.0601,0.0632,0.0798,0.0907,0.1114,0.1365,0.1542,0.1598,0.1292,0.0943,0.0373,0.0058,-0.0082,-0.012,-0.0236,-0.0275,0.0066,0.0011,0.0001,0.0001,0.0001,0.0001,0.0001,0.0001,0.0236,0.0348,0.0399,0.0583,0.0672,0.0824,0.0916,0.1078,0.1277,0.1593,0.1789,0.1916,0.1646,0.0597,-0.0099,-0.0263,-0.0505,-0.0541,-0.0646,-0.0449,-0.043,-0.0412,-0.0486,-0.06,-0.0601,-0.0958,-0.0962,-0.0965]}],[{"header":{"parameterUnit":"m.s-1","parameterCategory":2,"la1":30.2991,"la2":30.254,"lo1":-89.0895,"lo2":-89.0444,"dy":0.0017,"dx":0.0017,"nx":28,"ny":28,"refTime":"2024-10-21T03:00:00:Z","depth":"2","parameterNumber":2,"parameterNumberName":"U-component_of_CURRENTS"},"data":[0,0,0,0,0,0,0,0,0,0,0,0,0,0,0,0,0,0,0,0,0,0,0,0,0,0,0,0,0,0,0,0,0,0,0,0,0,0,0,0,0,0,0,0,0,0,0,0,0,0,0,0,0,0,0,0,0,0,0.2236,0.2236,0,0.2228,0.2228,0.2228,0.2229,0.2229,0.2229,0.223,0.2239,0.2239,0.2239,0,0,0,0,0,0,0,0,0,0,0,0,0,0.2264,0.2263,0.2236,0.2236,0.2236,0.2228,0.2228,0.2228,0.2229,0.2229,0.223,0.223,0.2239,0.2239,0.2239,0,0,0,0,0,0,0,0,0,0,0,0,0,0.2253,0.2263,0.2236,0.2236,0.2236,0.2228,0.2228,0.2228,0.2229,0.2229,0.223,0.223,0.2239,0.2239,0.2239,0.2232,0,0,0.2239,0.2239,0,0,0,0,0,0,0,0,0.2253,0.2252,0.2236,0.2236,0.2236,0.2231,0.2241,0.223,0.2229,0.2231,0.223,0.223,0.2238,0.2238,0.2234,0.2233,0.2233,0.2239,0.2239,0.2239,0.2239,0,0,0,0,0,0,0,0.2254,0.2252,0.2232,0.2236,0.2236,0.2241,0.224,0.2239,0.2232,0.2231,0.2231,0.2231,0.2238,0.2234,0.2235,0.2233,0.2239,0.2239,0.2239,0.2239,0.2313,0.2315,0,0,0,0,0,0,0.2256,0.2253,0.2232,0.2232,0.2247,0.224,0.2239,0.2231,0.2232,0.2232,0.2231,0.2232,0.2234,0.2234,0.2235,0.2287,0.2239,0.2239,0.2239,0.2311,0.2313,0.2315,0,0,0,0,0,0,0.2256,0.2254,0.2233,0.2243,0.2241,0.2239,0.2231,0.2231,0.2249,0.2232,0.2233,0.2252,0.2234,0.2235,0.2272,0.2285,0.2239,0.2239,0.2309,0.2312,0.2314,0.2354,0,0,0,0,0,0,0.2257,0.2254,0.2247,0.2243,0.2241,0.2252,0.2231,0.2231,0.2247,0.2249,0.225,0.2249,0.2235,0.2273,0.2272,0.2285,0.2239,0.2306,0.231,0.2314,0.235,0.2358,0.2364,0,0,0,0,0,0.2258,0.2247,0.2247,0.2244,0.2232,0.2254,0.2254,0.2253,0.2249,0.2267,0.2277,0.2251,0.2295,0.2275,0.2274,0.2286,0.2305,0.2309,0.2313,0.2347,0.2356,0.2364,0,0,0,0,0,0,0.2245,0.2246,0.2246,0.2232,0.2255,0.2255,0.2266,0.2267,0.2287,0.2289,0.2277,0.2278,0.2311,0.2305,0.2283,0.2322,0.2295,0.2299,0.232,0.2329,0.2336,0.2359,0.2239,0,0,0,0,0,0.2241,0.2253,0.2252,0.2255,0.2262,0.227,0.2277,0.2281,0.2295,0.2304,0.2302,0.231,0.2324,0.2335,0.2339,0.2365,0.2382,0.2375,0.2382,0.2388,0.241,0.2461,0.2474,0.233,0.233,0.233,0,0,0.2241,0.2246,0.225,0.2257,0.2272,0.2287,0.2277,0.23,0.2318,0.2302,0.2329,0.2332,0.2338,0.2365,0.2378,0.2364,0.2437,0.2393,0.2398,0.2417,0.2467,0.2481,0.2493,0.2333,0.2332,0.2332,0,0,0.2252,0.2252,0.2262,0.2281,0.2305,0.2313,0.2328,0.2337,0.2349,0.2381,0.2372,0.2402,0.2411,0.2423,0.243,0.2486,0.2471,0.2477,0.2531,0.258,0.2592,0.2603,0.2635,0.2648,0.2482,0.2482,0.2482,0,0.2251,0.2259,0.2273,0.2289,0.2307,0.233,0.2347,0.2366,0.2388,0.2403,0.2401,0.2443,0.2443,0.2488,0.2509,0.25,0.2522,0.249,0.2588,0.2599,0.261,0.264,0.2655,0.2485,0.2484,0.2484,0.2484,0,0.2261,0.2279,0.2295,0.2325,0.2345,0.2376,0.2397,0.2421,0.2439,0.2452,0.2503,0.2521,0.2551,0.2549,0.2549,0.2617,0.2606,0.2586,0.2562,0.2627,0.2655,0.2669,0.2488,0.2487,0.2487,0.2486,0,0,0.2246,0.2291,0.2301,0.232,0.2368,0.2383,0.2427,0.2465,0.2501,0.2529,0.258,0.2615,0.2631,0.2645,0.2646,0.2692,0.2779,0.2679,0.268,0.2704,0.2884,0.2805,0.2812,0.2774,0.2777,0.2779,0.287,0,0.226,0.2283,0.2311,0.2359,0.2373,0.2415,0.246,0.2497,0.2539,0.2593,0.263,0.2679,0.2666,0.2694,0.2742,0.277,0.282,0.2756,0.2825,0.2828,0.2743,0.2828,0.2593,0.2648,0.2884,0.2886,0.2888,0,0.2253,0.2277,0.2306,0.2372,0.2385,0.2424,0.2495,0.2535,0.2614,0.2651,0.2712,0.2744,0.2824,0.2806,0.2907,0.2867,0.2893,0.2911,0.2914,0.2841,0.2776,0.2625,0.2665,0.2912,0.291,0.2908,0.2907,0,0.2209,0.2274,0.2299,0.232,0.2393,0.2429,0.2475,0.255,0.2604,0.2695,0.2742,0.2833,0.2897,0.2947,0.2993,0.2961,0.31,0.305,0.3005,0.2998,0.2814,0.2786,0.3139,0.3138,0.3138,0.3138,0.3138,0,0.2194,0.2221,0.2288,0.2298,0.2355,0.2411,0.2491,0.2538,0.2649,0.2708,0.2775,0.2841,0.2942,0.302,0.3037,0.3074,0.3139,0.3043,0.303,0.282,0.2793,0.303,0.3016,0.3141,0.3141,0.314,0.3139,0,0.2141,0.218,0.2219,0.2302,0.2329,0.2368,0.2495,0.2544,0.2649,0.2731,0.2766,0.2894,0.2978,0.3054,0.3157,0.3131,0.3165,0.316,0.2903,0.2858,0.3017,0.3004,0.3115,0.3114,0.3112,0.3111,0.311,0,0.2118,0.2126,0.2201,0.2221,0.2268,0.2346,0.239,0.2521,0.258,0.2737,0.2762,0.2901,0.2948,0.307,0.3071,0.31,0.3161,0.2893,0.2788,0.3046,0.3022,0.3011,0.3001,0.2558,0.2552,0.2548,0.2544,0,0.2077,0.2103,0.2127,0.2173,0.222,0.2273,0.2354,0.2408,0.2545,0.2618,0.2704,0.2765,0.2879,0.2814,0.2878,0.2853,0.2864,0.2801,0.3164,0.2595,0.2526,0.25,0.2508,0.2505,0.2509,0.2511,0.2514,0.2515,0.2058,0.2057,0.2083,0.212,0.216,0.2178,0.2181,0.2268,0.2339,0.2403,0.2547,0.2546,0.2611,0.257,0.2511,0.2477,0.2665,0.2542,0.2554,0.2571,0.2485,0.2416,0.2358,0.2361,0.2364,0.2366,0.2368,0,0.2012,0.201,0.2025,0.2043,0.2033,0.2101,0.2127,0.2104,0.211,0.2204,0.2255,0.2102,0.2085,0.215,0.2038,0.2049,0.2008,0.1965,0.1887,0.193,0.1967,0.1847,0.1553,0.155,0.1548,0.1545,0,0,0.1986,0.1965,0.1948,0.1903,0.1923,0.1862,0.1848,0.1807,0.1833,0.1808,0.1803,0.1972,0.2079,0.1775,0.1753,0.1631,0.1757,0.1566,0.2227,0.2178,0.2211,0.2317,0.2183,0,0,0,0,0]},{"header":{"parameterUnit":"m.s-1","parameterCategory":2,"la1":30.2991,"la2":30.254,"lo1":-89.0895,"lo2":-89.0444,"dy":0.0017,"dx":0.0017,"nx":28,"ny":28,"refTime":"2024-10-21T03:00:00:Z","depth":"2","parameterNumber":3,"parameterNumberName":"V-component_of_CURRENTS"},"data":[0,0,0,0,0,0,0,0,0,0,0,0,0,0,0,0,0,0,0,0,0,0,0,0,0,0,0,0,0,0,0,0,0,0,0,0,0,0,0,0,0,0,0,0,0,0,0,0,0,0,0,0,0,0,0,0,0,0,0.0225,0.0225,0,0.018,0.0179,0.0179,0.0145,0.0145,0.0145,0.0145,0.0076,0.0074,0.0073,0,0,0,0,0,0,0,0,0,0,0,0,0,0.0232,0.0232,0.0225,0.0225,0.0225,0.018,0.0179,0.0179,0.0145,0.0145,0.0145,0.0145,0.0077,0.0075,0.0073,0,0,0,0,0,0,0,0,0,0,0,0,0,0.0211,0.0232,0.0226,0.0204,0.0202,0.018,0.0179,0.0178,0.0145,0.0145,0.0145,0.0145,0.0077,0.0075,0.0072,0.006,0,0,0.0064,0.0063,0,0,0,0,0,0,0,0,0.0212,0.021,0.0208,0.0205,0.0203,0.017,0.0157,0.0138,0.0145,0.0165,0.0145,0.0145,0.0107,0.0102,0.0091,0.0057,0.0054,0.0064,0.0063,0.0062,0.0061,0,0,0,0,0,0,0,0.0214,0.0212,0.0206,0.0207,0.0204,0.0179,0.0176,0.0153,0.0135,0.0163,0.0161,0.0159,0.0105,0.0094,0.0089,0.0053,0.0064,0.0062,0.006,0.0059,0.0004,0.0004,0,0,0,0,0,0,0.0226,0.0213,0.0207,0.0204,0.0209,0.018,0.0176,0.0179,0.0136,0.013,0.0159,0.0158,0.0098,0.0092,0.0087,0.008,0.0062,0.0059,0.0058,0.0004,0.0004,0.0004,0,0,0,0,0,0,0.0226,0.0226,0.0209,0.0209,0.0205,0.018,0.0183,0.0178,0.0166,0.0134,0.0127,0.0153,0.0098,0.009,0.0067,0.0076,0.0058,0.0056,0.0004,0.0004,0.0004,0.0059,0,0,0,0,0,0,0.0227,0.0226,0.0231,0.021,0.0206,0.0201,0.0184,0.0178,0.0166,0.0164,0.0126,0.0119,0.0097,0.0071,0.0064,0.0072,0.0054,0.0004,0.0004,0.0004,0.0057,0.0061,0.0064,0,0,0,0,0,0.0227,0.0236,0.0231,0.023,0.0213,0.0201,0.0196,0.0176,0.0166,0.0163,0.0137,0.012,0.0067,0.0069,0.0061,0.0069,0.0004,0.0004,0.0004,0.0055,0.006,0.0064,0,0,0,0,0,0,0.024,0.0233,0.0227,0.0233,0.022,0.0196,0.0192,0.0178,0.0155,0.0153,0.0119,0.0111,0.0094,0.0071,0.0074,0.0052,0.0033,0.0032,0.0075,0.0079,0.0083,0.0101,0.0052,0,0,0,0,0,0.0246,0.0249,0.0238,0.024,0.0238,0.0215,0.0207,0.0195,0.0174,0.0163,0.0138,0.0111,0.0089,0.0076,0.0053,0.0039,0.002,0.0039,0.0042,0.0046,0.0055,0.0034,0.0037,0.0005,0.0005,0.0005,0,0,0.025,0.0247,0.0248,0.0242,0.023,0.0235,0.0209,0.0202,0.0205,0.016,0.0152,0.0122,0.0087,0.0074,0.0065,0.0057,0.0044,0.0046,0.0049,0.0056,0.0035,0.0038,0.0041,0.0005,0.0005,0.0005,0,0,0.0264,0.026,0.027,0.0265,0.0257,0.0247,0.0248,0.0229,0.0219,0.0205,0.0177,0.0154,0.0117,0.0099,0.0083,0.0091,0.0063,0.0082,0.0115,0.0096,0.0099,0.0101,0.008,0.008,0.0084,0.0084,0.0084,0,0.0269,0.0285,0.0269,0.028,0.0284,0.0257,0.0273,0.0259,0.0234,0.0233,0.021,0.0164,0.0131,0.0122,0.0122,0.0101,0.0084,0.0104,0.0102,0.0104,0.0105,0.0083,0.0082,0.0087,0.0087,0.0086,0.0086,0,0.0297,0.0308,0.0313,0.0323,0.0323,0.033,0.0318,0.0313,0.0296,0.0283,0.0267,0.0218,0.0194,0.0177,0.0149,0.0146,0.0128,0.011,0.0096,0.0112,0.0087,0.0085,0.0091,0.009,0.0089,0.0088,0,0,0.0318,0.0332,0.0336,0.0352,0.035,0.0358,0.0362,0.0366,0.0382,0.0341,0.0352,0.0299,0.0274,0.0254,0.0216,0.0193,0.0179,0.0159,0.0156,0.0146,0.0136,0.0111,0.0106,0.0162,0.0162,0.0162,0.0114,0,0.0347,0.0389,0.0383,0.0418,0.044,0.0423,0.0434,0.0431,0.0421,0.0424,0.0372,0.0363,0.0304,0.0294,0.0261,0.0206,0.0178,0.0194,0.0114,0.0112,0.0095,0.0105,0.0125,0.0083,0.0112,0.0112,0.0112,0,0.0382,0.0407,0.0453,0.048,0.0489,0.0501,0.0528,0.0536,0.0528,0.0522,0.0499,0.0457,0.0416,0.0362,0.0274,0.0288,0.0217,0.0165,0.0162,0.0121,0.0084,0.007,0.0079,0.0108,0.0109,0.0109,0.0109,0,0.0424,0.0457,0.05,0.0509,0.0532,0.0546,0.0558,0.0565,0.0595,0.0587,0.0607,0.0541,0.0523,0.0425,0.0306,0.0292,0.0209,0.0177,0.0086,0.0083,0.0076,0.0072,0.0113,0.0113,0.0113,0.0113,0.0113,0,0.0465,0.0498,0.0521,0.0548,0.0599,0.0594,0.0651,0.0655,0.068,0.0734,0.0663,0.0684,0.0539,0.0468,0.0342,0.0214,0.0234,0.0097,0.0072,0.0094,0.0093,0.0094,0.0093,0.0111,0.0112,0.0112,0.0112,0,0.0501,0.0519,0.0571,0.0607,0.0621,0.0659,0.0718,0.0767,0.0777,0.0845,0.0846,0.0798,0.0706,0.0552,0.04,0.0277,0.0145,0.0091,0.0125,0.0104,0.0021,0.0023,-0.0012,-0.0013,-0.0014,-0.0015,-0.0016,0,0.0524,0.0554,0.0621,0.0662,0.0678,0.0734,0.0784,0.0814,0.0877,0.0921,0.0964,0.0893,0.086,0.0623,0.0395,0.0176,0.0144,0.0044,0.0014,0.0031,0.001,0.0013,0.0016,0.0024,0.0024,0.0023,0.0023,0,0.0564,0.0588,0.0634,0.0723,0.0783,0.0864,0.0934,0.0997,0.1048,0.1098,0.1148,0.1119,0.0902,0.0684,0.0379,0.0225,0.0077,0.003,0.0049,0.0051,0.006,0.0041,0.0044,0.0021,0.0021,0.0021,0.0021,0.0021,0.0591,0.0634,0.0702,0.0784,0.0864,0.0976,0.1053,0.1133,0.123,0.1302,0.1274,0.1231,0.0989,0.0595,0.0337,0.0059,0.0067,-0.0037,-0.0034,-0.0031,-0.0019,-0.0013,-0.0064,-0.0064,-0.0065,-0.0065,-0.0065,0,0.0626,0.0679,0.0759,0.0864,0.0961,0.1002,0.1144,0.1221,0.1333,0.1377,0.1398,0.1158,0.0917,0.0634,0.0229,-0.0014,-0.0031,-0.0097,-0.0058,-0.0054,-0.005,-0.0039,-0.0089,-0.009,-0.0091,-0.0091,0,0,0.065,0.0723,0.0767,0.092,0.1002,0.1139,0.1228,0.1331,0.1393,0.1425,0.1387,0.133,0.0997,0.0699,0.0375,0.0146,0.0098,0.0093,0.0138,0.0226,0.0233,0.0009,0.0035,0,0,0,0,0]}],[{"header":{"parameterUnit":"m.s-1","parameterCategory":2,"la1":30.2991,"la2":30.254,"lo1":-89.0895,"lo2":-89.0444,"dy":0.0017,"dx":0.0017,"nx":28,"ny":28,"refTime":"2024-10-21T03:00:00:Z","depth":"4","parameterNumber":2,"parameterNumberName":"U-component_of_CURRENTS"},"data":[0,0,0,0,0,0,0,0,0,0,0,0,0,0,0,0,0,0,0,0,0,0,0,0,0,0,0,0,0,0,0,0,0,0,0,0,0,0,0,0,0,0,0,0,0,0,0,0,0,0,0,0,0,0,0,0,0,0,0.1256,0.1257,0,0.132,0.132,0.1321,0.1369,0.137,0.1371,0.1371,0.1445,0.1446,0.1448,0,0,0,0,0,0,0,0,0,0,0,0,0,0.1191,0.1192,0.1256,0.1257,0.1258,0.132,0.1321,0.1321,0.1369,0.137,0.1371,0.1371,0.1444,0.1446,0.1448,0,0,0,0,0,0,0,0,0,0,0,0,0,0.1232,0.1192,0.1256,0.129,0.1294,0.132,0.1321,0.1321,0.1369,0.137,0.1371,0.1372,0.1444,0.1446,0.1448,0.1445,0,0,0.1455,0.1456,0,0,0,0,0,0,0,0,0.123,0.1234,0.1284,0.1288,0.1292,0.1339,0.1325,0.1364,0.1369,0.1339,0.1371,0.1372,0.141,0.1415,0.1424,0.1448,0.1451,0.1455,0.1456,0.1457,0.1458,0,0,0,0,0,0,0,0.1227,0.1232,0.128,0.1285,0.129,0.1308,0.1314,0.1332,0.1369,0.1342,0.1346,0.1355,0.1413,0.1421,0.1426,0.1452,0.1455,0.1457,0.1458,0.1459,0.1569,0.1571,0,0,0,0,0,0,0.122,0.1229,0.1278,0.1282,0.1264,0.1308,0.1315,0.1322,0.1368,0.1377,0.1354,0.1357,0.1417,0.1423,0.1429,0.1507,0.1457,0.1459,0.146,0.1567,0.1569,0.1571,0,0,0,0,0,0,0.1218,0.1223,0.1276,0.1258,0.1266,0.1308,0.1315,0.1323,0.1363,0.1378,0.1386,0.139,0.1418,0.1426,0.1473,0.1507,0.146,0.1462,0.1565,0.1568,0.157,0.1612,0,0,0,0,0,0,0.1216,0.1222,0.1241,0.1258,0.1267,0.131,0.1315,0.1323,0.1365,0.1371,0.1411,0.1417,0.1419,0.147,0.1475,0.1509,0.1464,0.1563,0.1567,0.1569,0.1609,0.1616,0.1622,0,0,0,0,0,0.1213,0.1227,0.1241,0.1248,0.1286,0.1311,0.1318,0.1349,0.1367,0.1388,0.1418,0.1417,0.1493,0.1473,0.1479,0.1514,0.1562,0.1566,0.1569,0.1606,0.1615,0.1622,0,0,0,0,0,0,0.1203,0.1234,0.125,0.1272,0.13,0.132,0.1347,0.1366,0.1406,0.1422,0.1434,0.1443,0.1499,0.1501,0.1478,0.1556,0.1529,0.1534,0.1555,0.1563,0.1569,0.1569,0.1466,0,0,0,0,0,0.121,0.1234,0.126,0.1282,0.1299,0.133,0.1351,0.1372,0.1402,0.1422,0.145,0.1482,0.1513,0.1534,0.1559,0.1598,0.1605,0.1627,0.1633,0.1638,0.1643,0.1686,0.1696,0.1583,0.1583,0.1583,0,0,0.1211,0.1233,0.1247,0.1283,0.131,0.1338,0.1346,0.1385,0.1415,0.1423,0.1483,0.1509,0.153,0.1577,0.1602,0.1586,0.1676,0.1643,0.1647,0.1649,0.1691,0.1702,0.1711,0.1586,0.1585,0.1585,0,0,0.1219,0.1248,0.1272,0.13,0.1347,0.1364,0.1382,0.1422,0.1453,0.1503,0.1521,0.1567,0.1614,0.1634,0.1648,0.1706,0.171,0.1723,0.1754,0.1796,0.1805,0.1813,0.1838,0.1848,0.1724,0.1724,0.1724,0,0.1225,0.1252,0.1283,0.1314,0.1341,0.1378,0.1408,0.144,0.1493,0.1523,0.1532,0.1621,0.1638,0.1693,0.1715,0.1721,0.1742,0.172,0.1803,0.1812,0.182,0.1843,0.1853,0.1726,0.1726,0.1726,0.1725,0,0.124,0.1278,0.1295,0.1347,0.138,0.1411,0.1455,0.15,0.1542,0.1575,0.1652,0.168,0.1733,0.1749,0.175,0.182,0.1817,0.1807,0.178,0.1834,0.1854,0.1865,0.173,0.1729,0.1728,0.1728,0,0,0.1214,0.1291,0.1302,0.1335,0.14,0.1425,0.1484,0.1542,0.159,0.165,0.1711,0.1768,0.1799,0.1818,0.1834,0.1868,0.1939,0.1867,0.1868,0.1885,0.2032,0.1898,0.1896,0.1952,0.1954,0.1956,0.2024,0,0.1222,0.1273,0.1316,0.1376,0.1405,0.1464,0.1513,0.1576,0.1634,0.1704,0.1753,0.182,0.1821,0.1859,0.1896,0.1934,0.1969,0.1921,0.1983,0.1984,0.1853,0.1904,0.1962,0.2031,0.2034,0.2035,0.2036,0,0.1222,0.1258,0.1309,0.1393,0.1414,0.1461,0.1551,0.1603,0.1701,0.1753,0.183,0.1873,0.1949,0.1934,0.2027,0.2003,0.2025,0.2042,0.2045,0.191,0.1869,0.1968,0.2055,0.2054,0.2052,0.2051,0.205,0,0.1172,0.1258,0.1296,0.1324,0.1418,0.1466,0.1526,0.1623,0.1682,0.1796,0.1854,0.1941,0.2001,0.2049,0.2093,0.2076,0.2179,0.2154,0.2051,0.2042,0.2123,0.2113,0.2214,0.2214,0.2214,0.2214,0.2214,0,0.1146,0.1187,0.1285,0.1305,0.1369,0.1451,0.1534,0.1606,0.1721,0.1788,0.1884,0.1942,0.2038,0.2103,0.2124,0.212,0.2209,0.2064,0.2054,0.2139,0.2131,0.213,0.212,0.2216,0.2216,0.2215,0.2215,0,0.1087,0.1146,0.1203,0.1309,0.1346,0.1397,0.1537,0.1588,0.1714,0.1805,0.1848,0.1977,0.2054,0.2124,0.2204,0.2147,0.216,0.2136,0.223,0.2223,0.1987,0.1978,0.2019,0.2015,0.2011,0.2009,0.2006,0,0.1056,0.1077,0.119,0.1221,0.1277,0.1369,0.1419,0.1563,0.1621,0.1803,0.1828,0.1958,0.2023,0.2031,0.2112,0.2139,0.2115,0.21,0.2029,0.1982,0.1969,0.1965,0.1961,0.2001,0.2,0.1999,0.1998,0,0.1,0.1052,0.1099,0.1159,0.122,0.1279,0.1374,0.1409,0.1564,0.1698,0.1767,0.1816,0.1896,0.1948,0.1989,0.2003,0.2094,0.2063,0.207,0.2003,0.196,0.195,0.195,0.1986,0.1987,0.1989,0.1989,0,0.0967,0.0984,0.1046,0.1094,0.1154,0.1169,0.1233,0.1305,0.1386,0.1587,0.1605,0.1745,0.1873,0.1879,0.1918,0.1921,0.1885,0.1808,0.1827,0.1842,0.1751,0.1669,0.1602,0,0,0,0,0,0.093,0.0939,0.0972,0.101,0.1059,0.1092,0.1188,0.1255,0.1406,0.1409,0.151,0.1577,0.1642,0.1719,0.1687,0.1832,0.1885,0.1785,0.1805,0.1919,0.1933,0.1842,0,0,0,0,0,0,0.0905,0.0938,0.0945,0.0927,0.0931,0.097,0.1021,0.1116,0.1135,0.1298,0.1345,0.1472,0.1562,0.1646,0.1655,0.1677,0.1653,0.1881,0.1876,0.1911,0.1924,0.1935,0.1846,0,0,0,0,0]},{"header":{"parameterUnit":"m.s-1","parameterCategory":2,"la1":30.2991,"la2":30.254,"lo1":-89.0895,"lo2":-89.0444,"dy":0.0017,"dx":0.0017,"nx":28,"ny":28,"refTime":"2024-10-21T03:00:00:Z","depth":"4","parameterNumber":3,"parameterNumberName":"V-component_of_CURRENTS"},"data":[0,0,0,0,0,0,0,0,0,0,0,0,0,0,0,0,0,0,0,0,0,0,0,0,0,0,0,0,0,0,0,0,0,0,0,0,0,0,0,0,0,0,0,0,0,0,0,0,0,0,0,0,0,0,0,0,0,0,0.0245,0.0245,0,0.0216,0.0216,0.0215,0.0203,0.0203,0.0203,0.0204,0.0163,0.0162,0.016,0,0,0,0,0,0,0,0,0,0,0,0,0,0.0244,0.0245,0.0245,0.0245,0.0244,0.0216,0.0216,0.0215,0.0203,0.0203,0.0203,0.0204,0.0163,0.0162,0.016,0,0,0,0,0,0,0,0,0,0,0,0,0,0.0232,0.0245,0.0245,0.0236,0.0234,0.0216,0.0216,0.0215,0.0203,0.0203,0.0204,0.0204,0.0164,0.0162,0.016,0.0145,0,0,0.0155,0.0154,0,0,0,0,0,0,0,0,0.0233,0.0232,0.0237,0.0236,0.0235,0.0214,0.0201,0.0191,0.0203,0.0214,0.0204,0.0204,0.0179,0.0176,0.0169,0.0143,0.0141,0.0154,0.0153,0.0153,0.0152,0,0,0,0,0,0,0,0.0234,0.0233,0.0233,0.0237,0.0236,0.0218,0.0216,0.0199,0.0195,0.0213,0.0212,0.0211,0.0179,0.0171,0.0168,0.0141,0.0155,0.0153,0.0152,0.0151,0.0115,0.0115,0,0,0,0,0,0,0.0242,0.0234,0.0234,0.0232,0.0236,0.0218,0.0216,0.022,0.0195,0.0192,0.021,0.021,0.0174,0.017,0.0167,0.0166,0.0153,0.0151,0.015,0.0115,0.0115,0.0115,0,0,0,0,0,0,0.0242,0.0242,0.0235,0.0233,0.0231,0.0218,0.0222,0.0219,0.0217,0.0194,0.019,0.0211,0.0174,0.0169,0.016,0.0163,0.015,0.0148,0.0115,0.0115,0.0115,0.0152,0,0,0,0,0,0,0.0242,0.0242,0.0247,0.0234,0.0231,0.023,0.0222,0.0219,0.0215,0.0215,0.0193,0.0189,0.0174,0.0162,0.0158,0.0161,0.0147,0.0115,0.0115,0.0115,0.015,0.0153,0.0155,0,0,0,0,0,0.0242,0.0248,0.0248,0.0247,0.0238,0.023,0.0227,0.0217,0.0215,0.0215,0.0204,0.019,0.0161,0.0161,0.0156,0.0158,0.0115,0.0115,0.0115,0.0149,0.0152,0.0155,0,0,0,0,0,0,0.0248,0.0247,0.0246,0.0251,0.0244,0.0228,0.0227,0.0221,0.0211,0.0212,0.0191,0.0187,0.0179,0.0163,0.0164,0.0148,0.0135,0.0134,0.0163,0.0166,0.0168,0.0179,0.0146,0,0,0,0,0,0.0252,0.0259,0.0252,0.0256,0.0255,0.0242,0.0237,0.0232,0.0222,0.0218,0.0203,0.0188,0.0174,0.0167,0.0152,0.0142,0.0118,0.014,0.0142,0.0145,0.015,0.0118,0.0119,0.0116,0.0116,0.0116,0,0,0.0255,0.0256,0.0259,0.0257,0.0252,0.0255,0.024,0.0238,0.0241,0.0214,0.0214,0.0196,0.0174,0.0166,0.0161,0.0154,0.0131,0.0145,0.0147,0.0151,0.0119,0.0119,0.0119,0.0116,0.0116,0.0116,0,0,0.0264,0.0266,0.0275,0.0274,0.027,0.0264,0.0267,0.0256,0.0252,0.0247,0.0231,0.0218,0.0196,0.0183,0.0172,0.0179,0.0146,0.0172,0.0193,0.0163,0.0163,0.0163,0.0127,0.0123,0.0173,0.0173,0.0174,0,0.0267,0.0281,0.0274,0.0283,0.0287,0.0273,0.0284,0.0276,0.0263,0.0262,0.0253,0.0223,0.0204,0.0195,0.0198,0.0185,0.016,0.0185,0.0167,0.0166,0.0165,0.0128,0.0124,0.0175,0.0175,0.0175,0.0175,0,0.0283,0.0295,0.03,0.0311,0.0313,0.0319,0.0313,0.0311,0.0305,0.0296,0.0285,0.0257,0.0241,0.023,0.0217,0.0203,0.0184,0.0174,0.016,0.0168,0.0128,0.0123,0.0178,0.0177,0.0177,0.0176,0,0,0.0292,0.031,0.0314,0.0328,0.0332,0.0337,0.0342,0.0344,0.0353,0.033,0.0332,0.0304,0.0288,0.0275,0.0252,0.0225,0.0194,0.0201,0.0198,0.0168,0.012,0.0108,0.01,0.0179,0.0179,0.0178,0.0093,0,0.0309,0.0339,0.0341,0.0369,0.0384,0.0378,0.0388,0.0386,0.0379,0.0376,0.0342,0.0336,0.0305,0.0301,0.0268,0.0216,0.0182,0.0218,0.0115,0.0112,0.0103,0.0095,0.0176,0.0089,0.0087,0.0086,0.0086,0,0.0327,0.0348,0.0382,0.0408,0.0415,0.0428,0.0447,0.0454,0.0442,0.0437,0.0417,0.0388,0.0351,0.0324,0.0231,0.0255,0.0192,0.0145,0.014,0.0115,0.009,0.008,0.0075,0.0076,0.0077,0.0078,0.0078,0,0.0346,0.0376,0.041,0.0419,0.0443,0.0458,0.0471,0.0473,0.0492,0.0477,0.0484,0.0428,0.0408,0.0323,0.0225,0.0227,0.0115,0.0104,0.0029,0.0027,0.0048,0.0049,0.0033,0.0033,0.0033,0.0033,0.0034,0,0.0364,0.0391,0.0423,0.0443,0.0485,0.0489,0.0531,0.0532,0.0545,0.0572,0.0521,0.0519,0.0407,0.033,0.0233,0.0114,0.0117,0.003,0.0005,0.0064,0.0068,0.0043,0.0045,0.003,0.0031,0.0031,0.0032,0,0.0375,0.0397,0.0438,0.0478,0.0495,0.0526,0.0581,0.0611,0.0615,0.0645,0.0644,0.0585,0.0485,0.036,0.0218,0.0133,0.0016,-0.0029,0.0038,0.0019,-0.0057,-0.0052,-0.0121,-0.0122,-0.0123,-0.0124,-0.0125,0,0.0383,0.0406,0.047,0.0503,0.0524,0.0575,0.0616,0.0645,0.068,0.0686,0.0699,0.0617,0.0559,0.035,0.0212,0.0015,-0.0012,-0.0081,-0.0067,-0.0055,-0.0072,-0.0066,-0.0059,-0.0126,-0.0126,-0.0127,-0.0127,0,0.0396,0.0422,0.0458,0.053,0.0582,0.0646,0.0702,0.0736,0.0768,0.0772,0.0747,0.0639,0.0522,0.0356,0.0199,0.006,-0.004,-0.0091,-0.009,-0.0077,-0.0062,-0.0077,-0.0069,-0.013,-0.013,-0.0129,-0.0129,0,0.0406,0.0434,0.0488,0.055,0.062,0.0691,0.0726,0.0766,0.08,0.0803,0.079,0.0664,0.0592,0.0378,0.0236,0.0094,0.0058,0.0009,0.0004,0.0006,0.0068,0.0107,0.0068,0,0,0,0,0,0.0412,0.0446,0.0504,0.0575,0.0648,0.0695,0.0771,0.0802,0.0834,0.0824,0.0812,0.0703,0.0494,0.0404,0.0261,0.0207,0.0025,0.0033,-0.0035,-0.0148,-0.0144,-0.0095,0,0,0,0,0,0,0.0417,0.0467,0.0499,0.0586,0.064,0.0727,0.0783,0.0809,0.0806,0.0811,0.0706,0.0655,0.0454,0.0574,0.0253,0.0209,0.0144,-0.0063,-0.0067,-0.015,-0.0147,-0.0144,-0.0092,0,0,0,0,0]}]]